Wind_Speed
18 19 21 22 22 23 25 25 25 23 22 22 24 25 26 27 28 28 29 30 31 32 33 33 34 35 37 38 40 41 42 43 44 44 44 44 45 45 45 46 46 46 46 45
18 19 21 22 22 23 24 24 24 24 22 23 24 26 26 27 27 28 28 29 29 30 31 32 32 33 34 35 37 38 39 40 41 42 42 42 42 43 43 43 43 42 41 41
19 20 21 23 22 23 24 25 25 25 23 24 25 26 26 27 27 28 28 28 28 29 29 30 31 31 32 33 34 35 37 38 39 39 40 40 41 41 41 41 40 40 40 39
20 20 21 21 22 22 23 23 24 25 24 25 25 26 26 27 27 27 28 28 29 29 29 30 30 31 32 32 33 34 35 36 37 37 38 39 39 39 39 39 39 39 39 39
19 20 20 19 20 21 22 22 24 24 25 26 26 26 26 27 27 27 28 28 29 29 29 29 29 30 31 32 32 33 34 34 35 36 36 37 38 38 38 38 38 37 37 37
17 19 20 20 20 21 21 22 22 23 24 25 25 26 26 27 26 26 27 27 28 28 28 28 29 29 30 30 31 31 32 32 33 33 34 35 36 36 37 37 37 36 36 35
17 18 19 19 19 20 21 21 22 22 23 23 24 25 25 26 26 26 26 27 27 27 27 28 28 29 29 30 30 31 31 31 32 32 33 33 34 35 35 35 35 35 35 35
17 18 18 18 19 20 20 21 22 22 22 23 23 24 25 25 25 25 25 26 26 27 27 28 28 28 28 29 29 29 29 30 30 30 31 31 31 32 32 32 32 33 33 33
17 18 18 19 19 19 20 20 21 21 22 22 22 23 24 24 24 24 24 25 25 26 26 27 27 27 28 27 27 28 28 29 29 29 29 30 30 30 30 30 31 31 32 32
16 17 18 19 19 20 20 20 20 20 21 21 21 21 21 22 22 23 24 24 24 25 25 25 25 26 26 26 26 27 27 28 28 28 29 29 30 30 30 30 29 30 30 30
17 18 18 19 20 20 19 20 20 20 20 20 21 21 21 21 22 22 23 23 23 24 24 24 24 25 25 26 26 26 26 27 27 27 27 27 28 28 28 29 29 29 29 29
19 19 20 20 21 21 21 21 21 21 20 20 21 21 21 21 21 22 22 22 23 23 23 23 24 25 25 26 26 26 26 26 26 26 26 27 27 27 28 28 28 28 28 28
20 21 21 21 22 22 22 22 22 22 22 21 21 21 21 21 21 21 22 22 23 23 24 24 25 25 25 26 26 27 27 27 27 27 27 27 27 27 28 28 28 29 29 29
21 22 22 22 23 23 22 22 22 22 22 22 21 21 21 21 21 21 22 22 23 24 25 25 26 26 26 26 27 27 27 28 28 28 28 28 28 28 28 28 29 29 29 29
21 22 22 22 23 23 23 22 22 22 22 22 22 22 22 22 22 23 23 23 24 24 25 25 25 25 25 26 26 27 27 28 28 28 28 28 28 28 28 29 29 30 30 30
21 21 21 22 23 23 23 22 22 22 22 22 22 23 23 24 24 24 24 24 24 25 25 26 26 26 26 27 27 27 27 28 28 28 28 29 29 29 29 29 30 30 31 32
19 20 20 21 22 23 23 24 23 23 23 23 23 23 23 24 24 24 24 25 25 25 25 26 26 27 27 28 28 28 28 28 28 28 29 29 30 30 31 31 31 32 32 33
18 19 20 20 22 23 23 24 25 24 24 24 24 23 23 23 24 25 25 25 26 26 26 26 27 27 28 28 28 29 29 30 29 29 30 30 31 31 31 32 33 34 34 35
17 18 19 21 22 23 23 24 24 25 25 25 25 25 25 25 25 25 26 26 26 26 26 27 27 27 28 28 28 29 29 30 31 31 31 32 32 32 33 33 34 35 35 36
17 18 19 20 22 23 23 24 25 25 25 25 26 26 26 26 25 26 26 26 26 26 26 27 27 27 28 28 28 29 29 30 30 31 31 32 32 33 33 34 35 35 36 36
18 18 19 20 21 22 23 23 24 24 25 25 26 26 27 26 26 26 26 26 26 27 27 27 27 27 27 27 28 29 29 30 30 31 31 32 32 33 33 34 35 35 36 37
19 19 20 21 21 22 22 23 24 24 24 24 25 26 26 27 27 27 27 27 27 27 27 27 27 27 28 28 28 29 29 29 30 30 31 31 32 32 33 33 34 35 35 36
19 19 19 20 20 21 21 22 23 24 24 24 24 25 25 26 26 27 26 26 27 27 27 27 27 28 28 28 28 29 29 29 29 30 30 31 31 32 32 32 33 34 34 35
20 19 20 20 20 21 21 22 22 23 24 24 24 24 25 25 26 26 26 26 26 26 26 26 27 27 28 28 28 28 28 29 29 30 30 31 31 31 32 32 33 33 34 35
20 20 20 20 21 21 22 23 23 23 23 24 24 24 24 25 25 25 26 27 27 27 27 27 27 28 28 28 28 28 29 29 29 30 30 31 31 32 32 33 33 34 35 36
21 21 21 21 21 22 23 23 23 23 23 24 24 24 24 25 25 25 26 27 28 28 28 28 28 28 28 29 29 29 30 30 30 30 31 31 32 32 32 33 33 34 35 36
23 23 22 22 22 23 23 23 23 24 24 24 24 25 25 26 26 26 27 27 28 28 29 29 29 29 29 30 30 30 31 31 31 32 32 32 32 33 33 34 34 35 35 36
Wind_Direction
238 235 232 229 229 228 230 233 233 229 230 225 227 228 229 231 233 235 238 241 243 244 246 247 248 249 250 251 252 253 254 254 255 256 257 258 259 259 261 261 262 263 265 266
244 242 239 233 231 229 229 231 230 230 229 230 231 232 233 235 237 239 241 243 245 247 249 250 251 251 252 253 254 255 255 256 256 256 257 259 260 260 261 262 263 264 264 265
246 245 242 238 232 232 232 231 234 235 234 234 235 235 237 238 241 242 244 246 248 250 251 252 253 253 254 255 256 256 256 257 257 257 258 259 259 260 260 261 262 262 263 264
245 242 242 238 233 233 233 233 237 239 239 239 237 237 239 241 243 244 246 247 249 250 252 253 254 255 255 255 256 257 257 258 258 258 258 259 259 260 260 260 261 261 262 262
246 244 241 239 237 236 237 239 240 241 241 241 239 239 240 242 244 245 246 247 249 251 253 254 255 256 256 256 256 257 258 259 259 260 260 260 259 260 260 261 261 261 261 262
244 243 242 241 241 241 241 241 239 241 241 241 240 240 241 244 245 247 248 249 250 252 253 254 255 255 255 255 256 258 258 259 260 260 260 260 260 260 261 261 260 260 260 261
244 243 242 241 241 241 242 242 241 241 241 241 241 241 242 244 246 247 248 249 250 252 253 254 255 255 255 256 257 258 259 260 260 261 261 261 261 260 260 260 259 259 260 260
244 244 242 242 243 241 240 240 241 242 242 243 243 244 244 246 247 248 248 249 250 251 252 254 255 255 255 256 257 258 259 260 260 261 261 261 261 260 258 258 258 258 259 258
245 244 244 242 242 241 241 240 242 243 243 244 245 245 246 247 247 246 247 248 249 249 251 253 254 255 256 256 257 258 259 260 260 261 262 261 262 261 259 259 259 258 258 258
246 247 245 242 241 241 241 240 241 241 242 243 244 244 245 246 246 246 246 247 249 249 250 252 253 254 255 256 258 259 260 261 262 262 263 262 262 261 260 260 259 258 257 257
244 246 245 242 242 242 241 241 242 243 243 243 244 244 245 247 246 246 246 248 249 250 250 252 253 255 255 256 258 259 261 262 263 262 263 263 262 261 259 259 258 258 257 257
246 247 245 243 243 242 240 239 238 240 244 246 247 247 248 249 248 248 248 249 250 250 251 253 254 255 256 257 259 260 261 262 262 262 263 263 263 261 259 259 259 259 258 258
251 248 246 245 243 243 242 240 239 241 244 247 249 249 249 250 249 249 251 251 252 252 253 254 256 257 257 259 260 261 261 262 262 262 263 263 263 263 261 260 260 260 259 259
256 251 248 245 244 244 243 243 243 244 245 248 249 248 248 249 250 252 253 254 255 255 256 258 259 259 259 261 262 262 262 262 263 263 263 263 264 264 263 262 261 260 261 261
259 253 249 245 244 244 244 245 245 246 248 249 251 250 250 251 252 253 256 257 258 258 259 260 261 261 261 263 264 264 264 264 263 263 263 263 264 264 263 262 261 261 262 263
260 254 249 245 244 245 245 246 247 247 249 252 254 254 253 254 255 256 257 259 260 261 261 261 261 262 263 264 265 265 265 265 264 264 264 264 263 263 263 263 263 262 263 264
261 252 247 246 246 247 247 248 249 249 250 252 255 255 255 255 256 257 258 260 261 262 262 263 263 264 265 265 265 265 265 265 266 265 265 265 264 264 264 264 264 265 265 265
264 253 249 248 247 248 249 249 249 251 252 253 255 256 257 257 258 259 260 261 262 263 264 264 265 266 266 267 267 266 265 265 265 266 266 266 266 265 265 265 265 265 265 266
269 258 252 250 249 250 250 250 251 253 254 256 257 257 259 260 261 262 263 264 264 264 265 266 266 266 267 268 268 268 267 267 267 266 267 267 267 267 267 267 267 267 267 267
272 264 258 255 253 253 252 253 253 254 256 258 258 258 259 260 262 263 263 264 265 266 267 267 268 268 269 269 269 269 269 268 268 268 268 268 268 268 268 268 268 268 268 268
273 266 262 259 257 256 255 254 255 256 258 259 259 259 260 261 262 262 263 264 265 265 266 267 268 269 269 270 270 270 270 270 270 269 269 269 269 269 269 269 269 269 269 270
275 269 264 262 261 259 256 255 256 258 259 261 261 260 260 261 262 262 263 264 265 265 266 267 268 269 270 271 272 272 271 271 271 271 270 270 270 271 271 271 271 271 271 271
277 272 268 266 264 261 258 257 257 258 259 260 261 262 262 262 262 262 263 264 266 267 267 267 268 270 270 272 273 273 273 273 273 271 271 272 272 273 273 273 273 273 273 273
277 272 269 267 265 263 262 260 260 261 262 262 262 263 263 263 263 262 263 264 265 267 268 269 270 271 272 273 274 275 275 275 274 274 273 274 274 274 274 274 274 274 275 275
277 273 269 268 265 263 262 262 263 263 264 264 264 264 264 264 264 264 264 264 266 267 268 270 271 272 273 274 274 275 276 277 277 276 275 275 275 275 275 275 275 276 277 278
277 275 272 270 268 266 264 263 262 262 263 264 265 265 265 265 266 267 267 267 267 268 270 271 272 273 274 274 274 275 276 277 277 277 277 277 276 276 276 277 278 278 279 279
275 274 273 271 270 268 267 265 264 263 263 263 264 265 266 266 267 268 269 270 270 270 271 272 273 274 275 276 276 277 277 278 278 278 278 277 277 277 277 278 278 279 280 281
Height
5613 5614 5615 5617 5620 5622 5624 5627 5630 5634 5636 5640 5641 5644 5647 5650 5653 5657 5660 5663 5665 5668 5671 5673 5675 5677 5679 5681 5683 5685 5687 5688 5690 5691 5693 5694 5696 5697 5698 5699 5700 5701 5702 5703
5609 5610 5611 5612 5615 5617 5620 5622 5625 5627 5631 5634 5635 5638 5642 5644 5647 5651 5653 5656 5658 5661 5663 5665 5667 5669 5670 5672 5673 5675 5677 5678 5680 5681 5682 5684 5685 5686 5687 5688 5689 5690 5691 5692
5604 5605 5606 5608 5611 5613 5615 5617 5620 5622 5627 5628 5630 5633 5636 5639 5641 5644 5647 5649 5651 5653 5655 5657 5658 5660 5662 5663 5664 5666 5667 5668 5670 5671 5672 5673 5674 5675 5676 5677 5678 5679 5680 5681
5598 5600 5601 5606 5606 5607 5609 5612 5614 5617 5619 5622 5625 5627 5630 5632 5635 5637 5639 5642 5644 5646 5647 5649 5650 5652 5653 5654 5655 5657 5658 5659 5660 5661 5662 5663 5664 5665 5666 5667 5668 5669 5669 5670
5593 5594 5596 5599 5601 5603 5605 5607 5609 5611 5614 5616 5619 5621 5624 5626 5628 5630 5632 5634 5636 5638 5640 5641 5642 5643 5645 5646 5647 5648 5649 5650 5650 5651 5652 5653 5654 5655 5656 5656 5657 5658 5659 5660
5588 5590 5592 5595 5596 5597 5600 5602 5604 5606 5608 5610 5613 5616 5618 5619 5621 5623 5625 5627 5629 5630 5632 5633 5634 5635 5636 5637 5638 5639 5640 5641 5641 5642 5642 5643 5644 5645 5646 5646 5647 5648 5649 5650
5583 5585 5587 5590 5591 5593 5596 5598 5599 5600 5602 5604 5606 5609 5611 5613 5614 5616 5618 5620 5621 5623 5624 5625 5626 5627 5628 5629 5630 5631 5632 5632 5632 5633 5633 5634 5634 5635 5636 5637 5638 5638 5639 5640
5579 5580 5584 5584 5585 5588 5590 5591 5592 5594 5596 5598 5600 5602 5604 5606 5607 5609 5610 5612 5614 5615 5616 5617 5619 5620 5620 5621 5622 5623 5623 5624 5624 5624 5625 5625 5625 5626 5627 5627 5628 5629 5630 5631
5575 5578 5577 5578 5580 5582 5583 5585 5587 5589 5591 5592 5594 5596 5597 5599 5600 5602 5603 5605 5606 5607 5609 5610 5611 5612 5613 5613 5614 5615 5615 5615 5616 5616 5616 5617 5617 5617 5618 5619 5619 5620 5621 5622
5569 5571 5572 5573 5574 5576 5578 5579 5581 5583 5585 5586 5588 5589 5591 5592 5594 5595 5596 5598 5599 5600 5601 5602 5603 5604 5605 5606 5606 5607 5607 5608 5608 5608 5608 5608 5609 5609 5610 5610 5611 5611 5612 5613
5564 5566 5567 5568 5569 5571 5573 5574 5576 5578 5579 5580 5582 5583 5585 5586 5587 5589 5590 5591 5592 5593 5594 5595 5596 5597 5598 5598 5599 5599 5600 5600 5600 5600 5600 5601 5601 5601 5602 5602 5603 5603 5604 5605
5560 5561 5562 5563 5564 5566 5567 5569 5570 5572 5573 5575 5576 5577 5579 5580 5581 5582 5583 5584 5585 5586 5587 5588 5589 5590 5590 5591 5591 5592 5592 5592 5592 5592 5593 5593 5593 5593 5594 5594 5595 5595 5596 5597
5554 5555 5556 5557 5558 5560 5561 5563 5564 5566 5567 5569 5570 5571 5572 5573 5574 5576 5577 5578 5578 5579 5580 5581 5582 5582 5583 5583 5584 5584 5584 5584 5584 5585 5585 5585 5585 5586 5586 5586 5587 5587 5588 5588
5547 5548 5549 5551 5552 5553 5555 5556 5558 5560 5561 5562 5564 5565 5566 5567 5568 5569 5570 5571 5572 5572 5573 5574 5574 5575 5575 5575 5576 5576 5576 5576 5577 5577 5577 5577 5577 5578 5578 5578 5579 5579 5579 5580
5540 5541 5542 5543 5545 5547 5548 5550 5552 5553 5555 5556 5557 5558 5559 5560 5561 5562 5563 5564 5564 5565 5565 5566 5566 5567 5567 5567 5567 5568 5568 5568 5568 5568 5569 5569 5569 5569 5570 5570 5570 5570 5571 5571
5533 5534 5535 5537 5538 5540 5542 5544 5545 5547 5548 5549 5550 5551 5552 5553 5554 5555 5555 5556 5557 5557 5558 5558 5558 5559 5559 5559 5559 5559 5559 5560 5560 5560 5560 5560 5560 5561 5561 5561 5561 5561 5562 5562
5526 5527 5529 5531 5532 5534 5535 5537 5538 5540 5541 5542 5543 5544 5545 5545 5546 5547 5548 5548 5549 5549 5550 5550 5550 5551 5551 5551 5551 5551 5551 5551 5551 5551 5551 5551 5552 5552 5552 5552 5552 5552 5552 5552
5520 5521 5522 5524 5525 5527 5528 5530 5531 5533 5534 5535 5536 5536 5537 5538 5539 5539 5540 5540 5541 5541 5541 5542 5542 5542 5542 5542 5542 5542 5542 5542 5542 5542 5542 5542 5542 5542 5542 5542 5542 5542 5542 5541
5516 5516 5517 5518 5519 5520 5521 5522 5524 5525 5526 5527 5528 5529 5529 5530 5531 5531 5531 5532 5532 5532 5533 5533 5533 5533 5533 5533 5533 5532 5532 5532 5532 5532 5532 5532 5532 5532 5532 5532 5532 5531 5531 5531
5511 5510 5511 5511 5512 5513 5514 5515 5516 5517 5518 5519 5520 5521 5521 5522 5522 5523 5523 5523 5524 5524 5524 5524 5524 5524 5524 5524 5523 5523 5523 5523 5522 5522 5522 5522 5522 5522 5521 5521 5521 5520 5520 5520
5505 5505 5504 5505 5505 5506 5506 5507 5508 5509 5510 5510 5511 5512 5513 5513 5514 5514 5515 5515 5515 5515 5515 5515 5515 5515 5515 5514 5514 5514 5513 5513 5512 5512 5512 5512 5511 5511 5511 5510 5510 5509 5509 5508
5499 5498 5498 5498 5498 5498 5499 5499 5500 5501 5501 5502 5502 5503 5504 5504 5505 5505 5506 5506 5506 5506 5506 5506 5506 5506 5505 5505 5505 5504 5504 5503 5502 5502 5502 5501 5501 5500 5500 5499 5498 5498 5497 5496
5492 5491 5491 5490 5491 5491 5491 5492 5492 5493 5493 5494 5494 5494 5495 5495 5496 5497 5497 5498 5498 5498 5497 5497 5497 5497 5496 5496 5495 5495 5494 5493 5492 5492 5491 5491 5490 5490 5489 5488 5487 5487 5486 5485
5484 5484 5483 5483 5483 5483 5484 5484 5484 5485 5485 5485 5486 5486 5486 5487 5487 5488 5488 5489 5489 5489 5489 5488 5488 5488 5487 5486 5486 5485 5484 5483 5483 5482 5481 5480 5480 5479 5478 5477 5476 5476 5475 5473
5477 5476 5476 5476 5476 5476 5476 5476 5476 5476 5477 5477 5477 5477 5478 5478 5479 5479 5479 5479 5480 5480 5479 5479 5479 5478 5478 5477 5476 5476 5475 5474 5473 5472 5471 5470 5469 5468 5467 5466 5465 5464 5463 5461
5470 5469 5468 5468 5468 5468 5468 5468 5468 5468 5468 5469 5469 5469 5469 5470 5470 5470 5470 5470 5470 5470 5470 5470 5469 5469 5468 5467 5466 5466 5465 5464 5463 5462 5460 5459 5458 5457 5456 5455 5453 5452 5451 5449
5461 5461 5460 5460 5460 5459 5459 5459 5459 5460 5460 5460 5460 5461 5461 5461 5461 5461 5461 5461 5461 5460 5460 5460 5459 5459 5458 5457 5456 5455 5454 5453 5452 5451 5449 5448 5447 5445 5444 5443 5441 5440 5438 5436